| time (UTC) | temp F | wind direction | speed knots | gust knots | rain 1hr in | rain 24hr in | rain mn in | humidity % | barometer mb |
| 20260507234449 | 67 | 171 | 1.7 | 3.5 | 0.00 | 0.00 | 0.00 | 70 | 1010.3 |
| 20260507233448 | 67 | 146 | 0.9 | 3.5 | 0.00 | 0.00 | 0.00 | 70 | 1010.5 |
| 20260507232448 | 67 | 146 | 0.9 | 4.3 | 0.00 | 0.00 | 0.00 | 70 | 1010.8 |
| 20260507231448 | 67 | 215 | 0.0 | 0.9 | 0.00 | 0.00 | 0.00 | 70 | 1011.1 |
| 20260507230447 | 67 | 215 | 0.0 | 0.0 | 0.00 | 0.00 | 0.00 | 69 | 1010.8 |
| 20260507225448 | 67 | 215 | 0.0 | 0.0 | 0.00 | 0.00 | 0.00 | 70 | 1010.4 |
| 20260507223445 | 67 | 215 | 0.9 | 2.6 | 0.00 | 0.00 | 0.00 | 69 | 1010.5 |
| 20260507222447 | 67 | 192 | 0.9 | 4.3 | 0.00 | 0.00 | 0.00 | 70 | 1010.4 |
| 20260507221446 | 68 | 205 | 0.9 | 2.6 | 0.00 | 0.00 | 0.00 | 69 | 1010.5 |
| 20260507215438 | 67 | 238 | 2.6 | 6.1 | 0.00 | 0.00 | 0.00 | 70 | 1010.8 |
| 20260507214442 | 67 | 298 | 5.2 | 7.8 | 0.00 | 0.00 | 0.00 | 72 | 1010.9 |
| 20260507212440 | 67 | 80 | 2.6 | 5.2 | 0.00 | 0.00 | 0.00 | 70 | 1010.6 |
| 20260507211436 | 68 | 128 | 3.5 | 8.7 | 0.00 | 0.00 | 0.00 | 69 | 1010.8 |
| 20260507210437 | 68 | 214 | 5.2 | 9.6 | 0.00 | 0.00 | 0.00 | 69 | 1011.1 |
| 20260507205438 | 68 | 236 | 4.3 | 12.2 | 0.00 | 0.00 | 0.00 | 69 | 1011.0 |
| 20260507204438 | 68 | 236 | 3.5 | 6.1 | 0.00 | 0.00 | 0.00 | 69 | 1010.6 |
| 20260507203437 | 68 | 211 | 1.7 | 3.5 | 0.00 | 0.00 | 0.00 | 69 | 1010.5 |
| 20260507202438 | 68 | 196 | 0.9 | 3.5 | 0.00 | 0.00 | 0.00 | 69 | 1010.4 |
| 20260507200437 | 68 | 226 | 2.6 | 8.7 | 0.00 | 0.00 | 0.00 | 68 | 1010.6 |
| 20260507195436 | 68 | 172 | 3.5 | 11.3 | 0.00 | 0.00 | 0.00 | 69 | 1010.9 |
| 20260507194436 | 68 | 225 | 3.5 | 5.2 | 0.00 | 0.00 | 0.00 | 69 | 1010.8 |
| 20260507192436 | 68 | 292 | 0.0 | 3.5 | 0.00 | 0.00 | 0.00 | 69 | 1010.4 |
| 20260507191438 | 68 | 171 | 0.0 | 1.7 | 0.00 | 0.00 | 0.00 | 69 | 1010.2 |
| 20260507190437 | 68 | 171 | 0.0 | 2.6 | 0.00 | 0.00 | 0.00 | 69 | 1010.1 |
| 20260507185434 | 68 | 179 | 2.6 | 7.0 | 0.00 | 0.00 | 0.00 | 69 | 1010.3 |
| 20260507184434 | 68 | 259 | 3.5 | 7.8 | 0.00 | 0.00 | 0.00 | 69 | 1010.2 |
| 20260507183436 | 69 | 336 | 3.5 | 9.6 | 0.00 | 0.00 | 0.00 | 67 | 1010.1 |
| 20260507182430 | 69 | 221 | 6.1 | 13.9 | 0.00 | 0.00 | 0.00 | 66 | 1009.7 |
| 20260507181430 | 69 | 163 | 2.6 | 11.3 | 0.00 | 0.00 | 0.00 | 67 | 1009.5 |
| 20260507180430 | 69 | 285 | 5.2 | 11.3 | 0.00 | 0.00 | 0.00 | 67 | 1009.7 |
| 20260507174430 | 69 | 260 | 4.3 | 7.8 | 0.00 | 0.00 | 0.00 | 66 | 1009.8 |
| 20260507173432 | 69 | 241 | 8.7 | 19.1 | 0.00 | 0.00 | 0.00 | 64 | 1010.1 |
| 20260507172431 | 69 | 234 | 6.1 | 15.6 | 0.00 | 0.00 | 0.00 | 64 | 1010.0 |
| 20260507171430 | 70 | 179 | 5.2 | 14.8 | 0.00 | 0.00 | 0.00 | 65 | 1010.3 |
| 20260507170436 | 70 | 205 | 5.2 | 11.3 | 0.00 | 0.00 | 0.00 | 65 | 1010.2 |
| 20260507164434 | 71 | 250 | 5.2 | 10.4 | 0.00 | 0.00 | 0.00 | 63 | 1010.0 |
| 20260507163430 | 71 | 311 | 1.7 | 6.1 | 0.00 | 0.00 | 0.00 | 63 | 1010.0 |
| 20260507162430 | 70 | 19 | 5.2 | 14.8 | 0.00 | 0.00 | 0.00 | 62 | 1009.9 |
| 20260507161432 | 70 | 153 | 9.6 | 25.2 | 0.00 | 0.00 | 0.00 | 63 | 1009.9 |
| 20260507160432 | 70 | 138 | 13.0 | 26.9 | 0.00 | 0.00 | 0.00 | 63 | 1009.6 |
| 20260507155430 | 71 | 181 | 10.4 | 22.6 | 0.00 | 0.00 | 0.00 | 62 | 1009.2 |
| 20260507154430 | 71 | 159 | 13.0 | 26.1 | 0.00 | 0.00 | 0.00 | 61 | 1009.7 |
| 20260507152429 | 71 | 31 | 12.2 | 21.7 | 0.00 | 0.00 | 0.00 | 60 | 1009.9 |
| 20260507151432 | 72 | 144 | 8.7 | 20.0 | 0.00 | 0.00 | 0.00 | 60 | 1009.6 |
| 20260507150430 | 71 | 148 | 11.3 | 22.6 | 0.00 | 0.00 | 0.00 | 60 | 1009.7 |
| 20260507145430 | 71 | 112 | 10.4 | 26.9 | 0.00 | 0.00 | 0.00 | 59 | 1009.3 |
| 20260507144432 | 71 | 69 | 12.2 | 23.5 | 0.00 | 0.00 | 0.00 | 58 | 1009.4 |
| 20260507143432 | 71 | 153 | 13.0 | 25.2 | 0.00 | 0.00 | 0.00 | 59 | 1009.5 |
| 20260507142430 | 71 | 142 | 15.6 | 32.2 | 0.00 | 0.00 | 0.00 | 59 | 1009.1 |
| 20260507141430 | 71 | 100 | 13.9 | 33.9 | 0.00 | 0.00 | 0.00 | 59 | 1009.3 |
| 20260507140430 | 71 | 126 | 13.0 | 25.2 | 0.00 | 0.00 | 0.00 | 58 | 1009.5 |
| 20260507135430 | 71 | 138 | 16.5 | 28.7 | 0.00 | 0.00 | 0.00 | 58 | 1009.7 |
| 20260507133430 | 72 | 148 | 13.0 | 26.9 | 0.00 | 0.00 | 0.00 | 56 | 1009.8 |
| 20260507131430 | 73 | 159 | 11.3 | 33.0 | 0.00 | 0.00 | 0.00 | 53 | 1010.2 |
| 20260507124429 | 73 | 317 | 13.9 | 26.9 | 0.00 | 0.00 | 0.00 | 52 | 1010.6 |
| 20260507123431 | 73 | 148 | 16.5 | 33.9 | 0.00 | 0.00 | 0.00 | 52 | 1010.4 |
| 20260507122430 | 73 | 188 | 14.8 | 41.7 | 0.00 | 0.00 | 0.00 | 51 | 1010.4 |
| 20260507121432 | 73 | 163 | 12.2 | 20.0 | 0.00 | 0.00 | 0.00 | 49 | 1010.5 |
| 20260507120434 | 73 | 159 | 13.0 | 33.0 | 0.00 | 0.00 | 0.00 | 48 | 1010.5 |
| 20260507115430 | 74 | 105 | 8.7 | 21.7 | 0.00 | 0.00 | 0.00 | 46 | 1010.6 |
| 20260507113431 | 75 | 145 | 8.7 | 18.2 | 0.00 | 0.00 | 0.00 | 41 | 1010.9 |
| 20260507112427 | 75 | 138 | 11.3 | 26.9 | 0.00 | 0.00 | 0.00 | 39 | 1010.9 |
| 20260507110429 | 78 | 146 | 3.5 | 15.6 | 0.00 | 0.00 | 0.00 | 35 | 1011.0 |
| 20260507105431 | 78 | 175 | 2.6 | 8.7 | 0.00 | 0.00 | 0.00 | 34 | 1011.0 |
| 20260507103427 | 76 | 151 | 4.3 | 13.0 | 0.00 | 0.00 | 0.00 | 32 | 1011.2 |
| 20260507102427 | 75 | 123 | 5.2 | 13.0 | 0.00 | 0.00 | 0.00 | 32 | 1011.2 |
| 20260507101428 | 76 | 127 | 5.2 | 13.0 | 0.00 | 0.00 | 0.00 | 32 | 1011.1 |
| 20260507100429 | 76 | 216 | 5.2 | 13.0 | 0.00 | 0.00 | 0.00 | 32 | 1011.3 |
| 20260507094429 | 75 | 159 | 11.3 | 21.7 | 0.00 | 0.00 | 0.00 | 31 | 1012.0 |
| 20260507093427 | 75 | 186 | 8.7 | 26.9 | 0.00 | 0.00 | 0.00 | 32 | 1011.8 |
| 20260507092427 | 74 | 209 | 9.6 | 31.3 | 0.00 | 0.00 | 0.00 | 33 | 1011.8 |
| 20260507091434 | 75 | 182 | 5.2 | 14.8 | 0.00 | 0.00 | 0.00 | 36 | 1011.7 |
| 20260507090643 | 74 | 167 | 5.2 | 14.8 | 0.00 | 0.00 | 0.00 | 36 | 1011.7 |
| 20260507085428 | 74 | 205 | 7.8 | 14.8 | 0.00 | 0.00 | 0.00 | 38 | 1011.8 |
| 20260507084427 | 74 | 175 | 7.8 | 17.4 | 0.00 | 0.00 | 0.00 | 39 | 1012.1 |
| 20260507083427 | 73 | 167 | 7.8 | 20.0 | 0.00 | 0.00 | 0.00 | 41 | 1012.0 |
| 20260507082427 | 73 | 198 | 5.2 | 16.5 | 0.00 | 0.00 | 0.00 | 43 | 1012.0 |
| 20260507080428 | 73 | 184 | 5.2 | 11.3 | 0.00 | 0.00 | 0.00 | 44 | 1012.0 |
| 20260507074429 | 72 | 137 | 3.5 | 8.7 | 0.00 | 0.00 | 0.00 | 47 | 1012.4 |
| 20260507073428 | 71 | 130 | 1.7 | 6.1 | 0.00 | 0.00 | 0.00 | 50 | 1012.7 |
| 20260507072429 | 70 | 83 | 0.9 | 2.6 | 0.00 | 0.00 | 0.00 | 51 | 1012.8 |
| 20260507070427 | 69 | 107 | 0.9 | 3.5 | 0.00 | 0.00 | 0.00 | 52 | 1012.9 |
| 20260507065424 | 69 | 128 | 4.3 | 8.7 | 0.00 | 0.00 | 0.00 | 52 | 1012.9 |
| 20260507064425 | 68 | 117 | 4.3 | 8.7 | 0.00 | 0.00 | 0.00 | 52 | 1012.9 |
| 20260507063425 | 68 | 130 | 3.5 | 10.4 | 0.00 | 0.00 | 0.00 | 54 | 1012.9 |
| 20260507062423 | 68 | 135 | 3.5 | 7.0 | 0.00 | 0.00 | 0.00 | 54 | 1013.1 |
| 20260507061423 | 68 | 121 | 7.0 | 12.2 | 0.00 | 0.00 | 0.00 | 53 | 1013.0 |
| 20260507060423 | 67 | 139 | 4.3 | 10.4 | 0.00 | 0.00 | 0.00 | 52 | 1012.9 |
| 20260507054423 | 67 | 279 | 1.7 | 5.2 | 0.00 | 0.00 | 0.00 | 47 | 1013.0 |
| 20260507052425 | 67 | 53 | 1.7 | 3.5 | 0.00 | 0.00 | 0.00 | 43 | 1012.9 |
| 20260507051425 | 68 | 267 | 0.0 | 1.7 | 0.00 | 0.00 | 0.00 | 41 | 1013.0 |
| 20260507050421 | 68 | 267 | 0.9 | 2.6 | 0.00 | 0.00 | 0.00 | 41 | 1013.0 |
| 20260507045422 | 68 | 101 | 6.1 | 10.4 | 0.00 | 0.00 | 0.00 | 39 | 1012.9 |
| 20260507044421 | 69 | 138 | 6.1 | 9.6 | 0.00 | 0.00 | 0.00 | 37 | 1012.9 |
| 20260507043420 | 69 | 140 | 7.8 | 12.2 | 0.00 | 0.00 | 0.00 | 36 | 1012.9 |
| 20260507042423 | 68 | 108 | 6.1 | 10.4 | 0.00 | 0.00 | 0.00 | 37 | 1012.7 |
| 20260507041423 | 66 | 181 | 2.6 | 7.8 | 0.00 | 0.00 | 0.00 | 44 | 1013.0 |
| 20260507040421 | 67 | 186 | 1.7 | 4.3 | 0.00 | 0.00 | 0.00 | 45 | 1013.0 |
| 20260507035421 | 68 | 301 | 1.7 | 7.0 | 0.00 | 0.00 | 0.00 | 45 | 1013.0 |
| 20260507033421 | 67 | 126 | 4.3 | 9.6 | 0.00 | 0.00 | 0.00 | 41 | 1013.0 |
| 20260507032414 | 66 | 118 | 5.2 | 8.7 | 0.00 | 0.00 | 0.00 | 44 | 1012.8 |
| 20260507031414 | 65 | 126 | 4.3 | 8.7 | 0.00 | 0.00 | 0.00 | 48 | 1012.9 |
| 20260507030414 | 65 | 88 | 2.6 | 7.0 | 0.00 | 0.00 | 0.00 | 51 | 1013.0 |
| 20260507025414 | 66 | 149 | 4.3 | 8.7 | 0.00 | 0.00 | 0.00 | 50 | 1013.0 |
| 20260507024416 | 66 | 157 | 2.6 | 6.1 | 0.00 | 0.00 | 0.00 | 49 | 1013.0 |
| 20260507023414 | 67 | 192 | 1.7 | 3.5 | 0.00 | 0.00 | 0.00 | 48 | 1013.2 |
| 20260507022414 | 67 | 315 | 0.9 | 3.5 | 0.00 | 0.00 | 0.00 | 47 | 1013.0 |
| 20260507021421 | 67 | 324 | 0.9 | 2.6 | 0.00 | 0.00 | 0.00 | 46 | 1013.1 |
| 20260507020418 | 67 | 324 | 3.5 | 5.2 | 0.00 | 0.00 | 0.00 | 46 | 1013.0 |
| 20260507014419 | 67 | 86 | 0.9 | 2.6 | 0.00 | 0.00 | 0.00 | 48 | 1013.0 |
| 20260507012411 | 68 | 128 | 1.7 | 3.5 | 0.00 | 0.00 | 0.00 | 46 | 1012.8 |
| 20260507011412 | 68 | 329 | 1.7 | 4.3 | 0.00 | 0.00 | 0.00 | 45 | 1012.9 |
| 20260507010412 | 67 | 344 | 2.6 | 5.2 | 0.00 | 0.00 | 0.00 | 47 | 1013.1 |
| 20260507004408 | 67 | 5 | 0.9 | 2.6 | 0.00 | 0.00 | 0.00 | 50 | 1012.9 |
| 20260507003408 | 67 | 5 | 0.9 | 1.7 | 0.00 | 0.00 | 0.00 | 47 | 1012.9 |
| 20260507002414 | 67 | 59 | 2.6 | 4.3 | 0.00 | 0.00 | 0.00 | 47 | 1013.0 |
| 20260507001407 | 68 | 344 | 3.5 | 4.3 | 0.00 | 0.00 | 0.00 | 47 | 1012.9 |
| 20260507000408 | 68 | 340 | 1.7 | 4.3 | 0.00 | 0.00 | 0.00 | 45 | 1013.2 |